AirNav   Air Wisconsin Up To $57,000 Bonus
 
 398 users online  

74XA Gun Barrel City Airpark
Gun Barrel City, Texas, USA

GOING TO GUN BARREL CITY?


FAA INFORMATION EFFECTIVE 02 DECEMBER 2021

Location

FAA Identifier: 74XA
Lat/Long: 32-21-17.0000N 096-08-44.0000W
32-21.283333N 096-08.733333W
32.3547222,-96.1455556
(estimated)
Elevation: 385 ft. / 117 m (estimated)
Time zone: UTC -6 (UTC -5 during Daylight Saving Time)
Zip code: 75147

Airport Operations

Airport use: Private use. Permission required prior to landing
Activation date: 01/2012
Control tower: no
ARTCC: FORT WORTH CENTER
FSS: FORT WORTH FLIGHT SERVICE STATION
Attendance: MON-FRI 0900-1700, ALL SAT 1000-1500
SUNDAY BY CALL
Wind indicator: yes
Segmented circle: no
Lights: PCL LGTS - 5 SLOW CLICKS - 122.9 WEST SIDE RWY LIGHT RED & GREEN.

Airport Communications

CTAF: 122.9
WX AWOS-3PT at F44 (20 nm SE): 119.6 (903-670-1247)

Nearby radio navigation aids

VOR radial/distance  VOR name  Freq  Var
CQYr014/10.8CEDAR CREEK VORTAC114.8006E
FZTr292/35.4FRANKSTON VOR/DME111.4006E
TYRr264/37.6TYLER VOR/DME114.2006E

 
NDB name  Hdg/Dist  Freq  Var  ID
CROSSROADS323/19.921508ECSZ -.-. ... --..
POWELL033/22.534406ECGQ -.-. --. --.-
CORSICANA027/23.339606ECRS -.-. .-. ...
PYRAMID359/29.641806EPYF .--. -.-- ..-.
MESQUITE142/33.524803EPQF .--. --.- ..-.

Airport Services

Fuel available: 100LL

Runway Information

Runway 18/36

Dimensions: 3075 x 45 ft. / 937 x 14 m
Surface: asphalt, in good condition
RUNWAY 18  RUNWAY 36
Traffic pattern: leftleft

Airport Ownership and Management from official FAA records

Ownership: Privately-owned
Owner: GUN BARREL CITY AIRPARK LLC
1223 HARBOR POINT RD
GUN BARREL CITY, TX 75156
Phone 903-802-8574
Manager: GALEN IRWIN
1223 HARBOR POINT RD
GUN BARREL CITY, TX 75156
Phone 903-802-8574

Airport Operational Statistics

Aircraft based on the field: 11
Single engine airplanes: 11
    

Additional Remarks

FOR CD CTC FORT WORTH ARTCC AT 817-858-7584.

Instrument Procedures

There are no published instrument procedures at 74XA.

Some nearby airports with instrument procedures:

F44 - Athens Municipal Airport (20 nm SE)
KTRL - Terrell Municipal Airport (22 nm N)
KCRS - C David Campbell Field-Corsicana Municipal Airport (23 nm SW)
F41 - Ennis Municipal Airport (26 nm W)
KHQZ - Mesquite Metro Airport (31 nm NW)
 
Loc | Ops | Rwys | IFR | FBO | Links
Com | Nav | Svcs | Stats | Notes

City of Fort Worth
 
Aerial photo
WARNING: Photo may not be current or correct
Aerial photo of 74XA (Gun Barrel City Airpark)
Photo courtesy of Gun Barrel City Airpark
Taken in January 2011
looking north.

Do you have a better or more recent aerial photo of Gun Barrel City Airpark that you would like to share? If so, please send us your photo.

 
Airport distance calculator
Flying to Gun Barrel City Airpark? Find the distance to fly.

From to 74XA

Sunrise and sunset
Times for 08-Dec-2021
 Local
(UTC-6)
 Zulu
(UTC)
Morning civil twilight06:4812:48
Sunrise07:1513:15
Sunset17:1823:18
Evening civil twilight17:4523:45

Current date and time
Zulu (UTC)  08-Dec-2021 08:05:04
Local (UTC-6)  08-Dec-2021 02:05:04
 
METAR
KF44 
20nm SE 
080755Z AUTO 00000KT 10SM CLR 06/05 A2998 RMK AO2
KTRL 
23nm N 
080753Z AUTO 06006KT 10SM CLR 06/05 A3000 RMK AO2 SLP158 T00610050
KCRS 
23nm SW 
080753Z AUTO 11005KT 10SM CLR 09/08 A2999 RMK AO2 SLP153 T00890078
KHQZ 
31nm NW 
080755Z AUTO 04004KT 10SM CLR 06/05 A3001 RMK AO1 T00590045
KLNC 
32nm NW 
080755Z AUTO 00000KT 10SM CLR 07/05 A3000 RMK AO2 T00730048
KF46 
38nm NW 
080755Z AUTO 08005KT 10SM CLR 06/06 A3001 RMK AO2 T00600057
KTYR 
38nm E 
080753Z AUTO 06005KT 10SM CLR 07/06 A3001 RMK AO2 SLP159 T00720056 $
KJWY 
39nm W 
080755Z AUTO 06004KT 10SM CLR 07/06 A3000 RMK AO2 T00700057
TAF
KTYR 
38nm E 
080520Z 0806/0906 11006KT P6SM OVC250 TEMPO 0812/0816 BKN010 FM081600 15007KT P6SM BKN015 FM081800 16006KT P6SM SCT250 FM090000 15009KT P6SM BKN250
KDAL 
46nm NW 
080535Z 0806/0906 07003KT P6SM BKN250 FM081100 09004KT P6SM SCT010 FM081300 10005KT 2SM BR BKN007 TEMPO 0813/0816 3/4SM BR BKN004 FM081700 15009KT P6SM SCT030
NOTAMs
Click for the latest NOTAMs
NOTAMs are issued by the DoD/FAA and will open in a separate window not controlled by AirNav.

 

 
 

FBO, Fuel Providers, and Aircraft Ground Support

  
 Business Name 
 
 Contact 
 
 Services / Description 
 
Fuel Prices
 
Comments
  
Galvic Enterprises, Texas Inc. 903-802-8574
[web site]
Airport management, Aviation fuel, Aircraft parking (ramp or tiedown), Hangar leasing / sales, Aircraft interiors, Internet access, Restaurant

More info about Galvic Enterprises, Texas Inc.
Avfuel
100LL
FS $4.81 
 Updated 19-Sep-2018
 
   write
FS=Full service
Update Fuel Prices
 

Would you like to see your business listed on this page?

 If your business provides an interesting product or service to pilots, flight crews, aircraft, or users of the Gun Barrel City Airpark, you should consider listing it here.  To start the listing process, click on the button below
 
Add a business
 

Other Pages about Gun Barrel City Airpark

gunbarrelcityairpark.com
 
Update a link
 
Copyright © AirNav, LLC. All rights reserved. Privacy Policy  Contact